Time,TemperatureF,DewpointF,PressureIn,WindDirection,WindDirectionDegrees,WindSpeedMPH,WindSpeedGustMPH,Humidity,HourlyPrecipIn,Conditions,Clouds,dailyrainin,SoftwareType,DateUTC
2013-03-10 07:12:00,52.0,28.0,-100.00,ENE,70,2.0,4.0,38,0.00,,,-99.99,,2013-03-10 11:12:00,
2013-03-10 07:21:00,50.0,27.0,-100.00,ENE,70,1.0,4.0,38,0.00,,,-99.99,,2013-03-10 11:21:00,
2013-03-10 07:32:00,50.0,25.0,-100.00,ENE,69,0.0,4.0,37,0.00,,,-99.99,,2013-03-10 11:32:00,
2013-03-10 07:42:00,50.0,25.0,-100.00,East,81,1.0,4.0,37,0.00,,,-99.99,,2013-03-10 11:42:00,
2013-03-10 07:52:00,51.0,27.0,-100.00,ENE,72,1.0,4.0,37,0.00,,,-99.99,,2013-03-10 11:52:00,
2013-03-10 08:01:00,52.0,28.0,-100.00,ENE,70,0.0,4.0,40,0.00,,,-99.99,,2013-03-10 12:01:00,
2013-03-10 08:11:00,49.0,27.0,-100.00,ENE,70,0.0,4.0,41,0.00,,,-99.99,,2013-03-10 12:11:00,
2013-03-10 08:21:00,51.0,28.0,-100.00,ENE,62,1.0,4.0,42,0.00,,,-99.99,,2013-03-10 12:21:00,
2013-03-10 08:31:00,48.0,27.0,-100.00,ENE,70,0.0,4.0,41,0.00,,,-99.99,,2013-03-10 12:31:00,
2013-03-10 08:42:00,48.0,27.0,-100.00,ENE,72,1.0,4.0,41,0.00,,,-99.99,,2013-03-10 12:42:00,
2013-03-10 08:51:00,50.0,28.0,-100.00,ENE,62,1.0,4.0,42,0.00,,,-99.99,,2013-03-10 12:51:00,
2013-03-10 09:01:00,49.0,27.0,-100.00,ENE,72,0.0,4.0,41,0.00,,,-99.99,,2013-03-10 13:01:00,
2013-03-10 09:11:00,51.0,30.0,-100.00,ENE,62,1.0,4.0,42,0.00,,,-99.99,,2013-03-10 13:11:00,
2013-03-10 09:21:00,49.0,27.0,-100.00,ENE,72,1.0,4.0,40,0.00,,,-99.99,,2013-03-10 13:21:00,
2013-03-10 09:32:00,50.0,27.0,-100.00,East,81,1.0,4.0,38,0.00,,,-99.99,,2013-03-10 13:32:00,
2013-03-10 09:42:00,50.0,25.0,-100.00,ENE,72,2.0,4.0,37,0.00,,,-99.99,,2013-03-10 13:42:00,
2013-03-10 09:52:00,50.0,27.0,-100.00,ENE,62,2.0,4.0,38,0.00,,,-99.99,,2013-03-10 13:52:00,
2013-03-10 10:02:00,51.0,27.0,-100.00,East,81,2.0,4.0,37,0.00,,,-99.99,,2013-03-10 14:02:00,
2013-03-10 10:11:00,51.0,25.0,-100.00,ENE,72,2.0,4.0,36,0.00,,,-99.99,,2013-03-10 14:11:00,
2013-03-10 10:21:00,51.0,27.0,-100.00,ENE,72,1.0,4.0,36,0.00,,,-99.99,,2013-03-10 14:21:00,
2013-03-10 10:32:00,52.0,25.0,-100.00,ENE,70,2.0,4.0,34,0.00,,,-99.99,,2013-03-10 14:32:00,
2013-03-10 10:42:00,52.0,27.0,-100.00,ENE,62,1.0,4.0,36,0.00,,,-99.99,,2013-03-10 14:42:00,
2013-03-10 10:51:00,53.0,27.0,-100.00,East,81,2.0,4.0,34,0.00,,,-99.99,,2013-03-10 14:51:00,
2013-03-10 11:01:00,55.0,27.0,-100.00,ENE,72,3.0,4.0,32,0.00,,,-99.99,,2013-03-10 15:01:00,
2013-03-10 11:11:00,54.0,27.0,-100.00,East,81,3.0,4.0,33,0.00,,,-99.99,,2013-03-10 15:11:00,
2013-03-10 11:21:00,55.0,27.0,-100.00,ENE,72,3.0,4.0,33,0.00,,,-99.99,,2013-03-10 15:21:00,
2013-03-10 11:32:00,55.0,27.0,-100.00,East,80,2.0,4.0,32,0.00,,,-99.99,,2013-03-10 15:32:00,
2013-03-10 11:41:00,59.0,27.0,-100.00,ENE,70,3.0,6.0,28,0.00,,,-99.99,,2013-03-10 15:41:00,
2013-03-10 11:42:00,57.0,27.0,-100.00,East,80,2.0,4.0,31,0.00,,,-99.99,,2013-03-10 15:42:00,
2013-03-10 11:52:00,58.0,27.0,-100.00,East,80,3.0,4.0,29,0.00,,,-99.99,,2013-03-10 15:52:00,
2013-03-10 12:02:00,59.0,27.0,-100.00,ENE,74,4.0,6.0,27,0.00,,,-99.99,,2013-03-10 16:02:00,
2013-03-10 12:12:00,59.0,27.0,-100.00,ENE,70,3.0,6.0,28,0.00,,,-99.99,,2013-03-10 16:12:00,
2013-03-10 12:21:00,59.0,27.0,-100.00,ENE,70,3.0,6.0,28,0.00,,,-99.99,,2013-03-10 16:21:00,
2013-03-10 12:32:00,59.0,27.0,-100.00,ENE,70,3.0,6.0,28,0.00,,,-99.99,,2013-03-10 16:32:00,
2013-03-10 19:12:00,68.0,25.0,-100.00,ENE,70,1.0,10.0,18,0.00,,,-99.99,,2013-03-10 23:12:00,
2013-03-10 19:23:00,68.0,23.0,-100.00,ENE,72,0.0,10.0,18,0.00,,,-99.99,,2013-03-10 23:23:00,
2013-03-10 19:33:00,68.0,25.0,-100.00,ENE,72,0.0,10.0,18,0.00,,,-99.99,,2013-03-10 23:33:00,
2013-03-10 19:42:00,67.0,25.0,-100.00,ENE,60,0.0,10.0,19,0.00,,,-99.99,,2013-03-10 23:42:00,
2013-03-10 19:52:00,66.0,25.0,-100.00,ENE,70,0.0,10.0,20,0.00,,,-99.99,,2013-03-10 23:52:00,
2013-03-10 20:02:00,66.0,25.0,-100.00,ENE,72,0.0,10.0,20,0.00,,,-99.99,,2013-03-11 00:02:00,
2013-03-10 20:13:00,68.0,30.0,-100.00,ENE,70,1.0,10.0,23,0.00,,,-99.99,,2013-03-11 00:13:00,
2013-03-10 20:23:00,66.0,27.0,-100.00,ENE,60,1.0,10.0,22,0.00,,,-99.99,,2013-03-11 00:23:00,
2013-03-10 20:33:00,65.0,27.0,-100.00,ENE,70,1.0,10.0,22,0.00,,,-99.99,,2013-03-11 00:33:00,
2013-03-10 20:43:00,65.0,27.0,-100.00,ENE,70,0.0,10.0,22,0.00,,,-99.99,,2013-03-11 00:43:00,
2013-03-10 20:52:00,65.0,27.0,-100.00,East,81,2.0,10.0,22,0.00,,,-99.99,,2013-03-11 00:52:00,
2013-03-10 21:03:00,65.0,27.0,-100.00,ENE,72,2.0,10.0,22,0.00,,,-99.99,,2013-03-11 01:03:00,
2013-03-10 21:13:00,65.0,27.0,-100.00,ENE,72,2.0,10.0,23,0.00,,,-99.99,,2013-03-11 01:13:00,
2013-03-10 21:23:00,65.0,27.0,-100.00,ENE,72,2.0,10.0,23,0.00,,,-99.99,,2013-03-11 01:23:00,
2013-03-10 21:32:00,64.0,27.0,-100.00,ENE,70,1.0,10.0,23,0.00,,,-99.99,,2013-03-11 01:32:00,
2013-03-10 21:43:00,65.0,27.0,-100.00,ENE,76,3.0,10.0,23,0.00,,,-99.99,,2013-03-11 01:43:00,
2013-03-10 21:52:00,64.0,27.0,-100.00,ENE,60,4.0,10.0,23,0.00,,,-99.99,,2013-03-11 01:52:00,
2013-03-10 22:02:00,64.0,27.0,-100.00,ENE,60,4.0,10.0,23,0.00,,,-99.99,,2013-03-11 02:02:00,
2013-03-10 22:12:00,64.0,27.0,-100.00,ENE,70,4.0,10.0,24,0.00,,,-99.99,,2013-03-11 02:12:00,
2013-03-10 22:23:00,63.0,27.0,-100.00,East,81,5.0,10.0,24,0.00,,,-99.99,,2013-03-11 02:23:00,
2013-03-10 22:32:00,64.0,27.0,-100.00,ENE,70,5.0,10.0,24,0.00,,,-99.99,,2013-03-11 02:32:00,
2013-03-10 22:42:00,63.0,27.0,-100.00,ENE,60,3.0,10.0,24,0.00,,,-99.99,,2013-03-11 02:42:00,
2013-03-10 22:52:00,63.0,27.0,-100.00,East,81,3.0,10.0,25,0.00,,,-99.99,,2013-03-11 02:52:00,
2013-03-10 23:02:00,63.0,28.0,-100.00,ENE,64,4.0,10.0,27,0.00,,,-99.99,,2013-03-11 03:02:00,
2013-03-10 23:12:00,62.0,28.0,-100.00,ENE,69,4.0,10.0,27,0.00,,,-99.99,,2013-03-11 03:12:00,
2013-03-10 23:22:00,63.0,28.0,-100.00,ENE,70,4.0,10.0,27,0.00,,,-99.99,,2013-03-11 03:22:00,
2013-03-10 23:32:00,61.0,28.0,-100.00,ENE,72,4.0,10.0,28,0.00,,,-99.99,,2013-03-11 03:32:00,
2013-03-10 23:42:00,62.0,30.0,-100.00,East,81,3.0,10.0,28,0.00,,,-99.99,,2013-03-11 03:42:00,
2013-03-10 23:52:00,61.0,28.0,-100.00,ENE,62,1.0,10.0,28,0.00,,,-99.99,,2013-03-11 03:52:00,